Location: Miami
(25.6830°N, 80.1700°W)
Time: 17:35:05
(UTC-04:00)

Envisat - Visible Passes

Search period start: 17 July 2018 00:00
Search period end: 27 July 2018 00:00
Orbit: 764 x 766 km, 98.2° (Epoch: 17 July)

Date Brightness Start Highest point End Pass type
(mag) Time Alt. Az. Time Alt. Az. Time Alt. Az.
17 Jul 4.3 21:15:16 10° SSW 21:19:59 39° W 21:24:43 10° NNW visible
18 Jul 3.0 20:38:12 10° SSE 20:43:16 80° ENE 20:48:21 10° N visible
19 Jul 5.4 21:41:57 10° SW 21:45:38 20° W 21:49:19 10° NW visible
20 Jul 3.8 21:03:53 10° S 21:08:48 52° W 21:13:45 10° NNW visible
22 Jul 5.0 21:30:12 10° SSW 21:34:25 26° W 21:38:39 10° NW visible
23 Jul 3.3 20:52:36 10° S 20:57:38 70° WSW 21:02:42 10° NNW visible
24 Jul 5.7 21:57:42 10° SW 22:00:07 13° W 22:02:31 10° WNW visible
25 Jul 4.5 21:18:38 10° SSW 21:23:14 35° W 21:27:50 10° NNW visible
26 Jul 3.0 20:41:25 10° SSE 20:46:29 89° ENE 20:51:34 10° NNW visible
